Wind_Speed
9 11 13 13 12 13 12 14 14 15 14 12 9 10 6 2 4 7 11 15 16 16 13 11 9 11 7 3 4 1 8 8 11 18 15 13 18 18 14 12 9 14 15 20 20
3 6 13 16 16 16 14 14 14 13 11 12 13 11 5 3 8 11 14 17 15 13 9 8 7 3 5 4 5 5 7 5 14 17 14 15 15 17 16 15 15 16 19 20 20
5 6 6 14 17 18 19 17 16 13 12 9 7 5 5 5 10 13 16 21 18 12 10 6 2 4 3 4 4 3 8 16 16 19 16 17 19 18 15 15 15 17 18 20 19
9 8 8 8 12 18 17 17 15 10 5 5 3 4 5 7 12 15 20 24 20 13 11 9 4 5 4 13 9 6 14 14 9 19 21 22 23 23 22 17 14 16 18 17 18
11 7 8 9 10 11 12 16 14 12 8 8 4 5 6 8 12 18 22 24 20 17 16 6 10 4 5 18 11 15 8 10 8 15 17 18 23 28 21 19 18 19 19 18 19
10 8 8 8 9 7 6 7 10 11 11 7 5 6 8 9 15 19 25 26 21 20 17 12 9 2 9 20 12 12 15 12 11 20 18 18 22 25 22 22 18 20 22 22 21
9 8 7 6 5 6 7 6 7 8 9 8 5 7 9 11 15 21 25 25 22 20 18 14 7 7 9 8 9 7 14 15 16 21 9 24 22 22 29 23 24 26 25 23 22
7 7 7 6 6 7 5 7 7 6 7 8 6 9 11 12 13 20 24 24 23 19 15 10 10 6 12 7 11 13 14 13 15 5 20 22 17 19 20 19 22 29 23 22 23
7 7 7 6 7 7 4 5 6 7 6 4 7 11 10 11 15 20 23 24 21 17 15 12 7 11 7 13 10 12 15 17 23 17 24 27 25 21 14 16 24 15 15 19 22
8 8 8 8 7 7 5 6 6 7 6 3 4 8 9 11 15 19 19 19 14 14 12 10 10 9 11 12 11 16 19 24 26 32 26 32 29 23 27 11 13 23 24 19 23
8 9 8 7 7 6 4 5 6 5 9 8 7 15 18 15 18 17 17 20 18 15 11 17 10 4 10 13 20 19 21 25 31 29 33 33 31 29 28 26 15 31 19 18 21
6 10 9 7 5 4 1 3 4 4 7 11 16 15 19 20 21 15 17 19 19 20 14 10 8 8 8 12 11 17 16 23 24 28 33 29 29 29 28 28 34 26 18 23 27
7 10 8 5 4 0 1 5 6 5 4 10 4 10 13 16 19 19 12 17 21 20 16 15 7 1 11 18 9 14 22 23 26 35 39 32 32 34 34 34 38 39 33 25 33
8 9 8 4 5 5 6 6 5 3 1 3 5 8 9 15 14 12 16 16 22 16 18 17 10 3 10 16 21 27 26 27 30 31 37 36 34 30 34 38 38 41 31 28 35
10 9 8 5 5 7 5 4 6 3 7 8 2 11 10 8 9 14 17 19 17 17 20 14 14 8 13 19 22 27 31 34 37 33 32 30 32 31 32 34 39 35 33 35 38
11 8 7 5 6 7 5 4 6 5 7 8 10 1 9 8 9 10 10 9 8 14 13 13 17 13 20 24 24 33 30 30 24 29 29 27 28 29 31 34 35 37 37 30 37
8 6 7 6 6 5 5 5 5 6 9 13 11 9 5 7 8 9 13 15 13 10 4 5 13 16 20 21 24 30 31 32 29 22 26 26 29 29 31 32 35 35 32 34 39
6 6 8 7 8 5 6 5 7 9 9 11 17 10 7 3 11 12 16 19 18 22 19 19 18 22 21 23 29 30 29 33 29 28 28 26 29 30 31 34 34 36 39 41 38
8 6 8 8 7 7 5 7 9 10 8 13 20 16 9 8 10 11 18 19 20 21 25 26 22 27 18 27 29 31 32 31 32 32 30 29 33 32 34 35 35 38 41 36 44
10 9 9 8 6 5 6 8 6 11 17 13 27 20 16 13 16 18 20 22 24 26 30 29 17 11 20 31 31 33 35 33 33 32 33 34 35 35 36 34 34 35 32 41 43
11 9 8 7 7 6 5 7 9 12 13 19 11 29 25 20 22 20 24 27 27 29 29 27 28 15 21 26 24 29 32 34 32 31 34 37 37 36 33 32 33 34 36 38 40
11 8 8 7 7 9 10 12 15 16 15 9 17 23 31 25 24 21 26 31 33 31 31 29 21 22 24 23 23 28 29 27 26 29 31 34 37 34 31 31 33 35 36 36 39
9 8 9 8 9 13 20 17 16 17 14 6 13 17 9 13 22 22 18 32 34 29 20 22 23 22 20 24 25 28 27 29 28 27 24 30 30 28 28 31 35 33 36 36 36
11 13 11 11 14 14 12 13 18 21 21 10 11 14 13 8 11 15 24 17 15 19 26 24 19 21 20 25 28 24 22 28 31 31 27 26 27 24 28 33 37 38 38 37 37
14 8 7 12 17 16 16 19 20 17 17 19 16 11 18 15 16 16 21 16 13 15 15 18 16 18 20 22 25 24 24 25 28 31 34 24 23 25 29 34 38 40 40 41 40
12 9 9 13 15 16 23 21 20 22 23 21 20 14 8 13 10 13 15 18 16 14 13 17 18 19 18 19 22 24 23 23 26 34 37 22 26 31 36 38 41 42 43 42 40
11 11 14 15 19 22 21 23 24 22 23 29 33 28 11 19 13 13 16 18 19 18 17 15 15 17 21 21 20 25 23 26 25 27 28 32 30 33 36 40 41 42 42 41 39
Wind_Direction
219 231 233 236 244 254 262 269 267 283 282 275 292 327 322 272 147 141 168 167 158 147 136 130 111 84 100 170 74 198 3 55 27 19 11 2 351 344 346 332 326 315 321 317 312
327 252 238 246 253 259 261 268 273 285 279 273 279 296 283 216 161 164 167 165 143 129 114 64 90 111 34 288 48 72 179 71 11 15 1 351 353 346 340 328 326 317 317 317 318
322 310 279 242 248 257 262 269 277 283 277 276 264 254 251 205 173 174 164 146 136 140 110 95 188 315 33 26 88 15 49 357 4 6 349 353 351 342 340 329 318 320 320 322 323
312 302 292 271 254 252 251 258 266 269 252 251 258 233 237 200 176 177 157 151 163 155 138 163 225 140 22 14 17 40 1 353 354 344 345 348 357 342 340 333 335 329 325 327 329
330 315 297 279 273 262 262 246 244 246 259 257 288 235 221 197 170 172 163 165 177 160 159 174 218 109 10 3 342 352 3 358 326 325 323 342 350 340 338 341 338 331 327 330 329
336 333 314 281 270 263 270 240 240 242 247 246 264 249 212 191 172 170 166 174 180 169 168 195 200 122 47 15 5 16 3 330 319 305 313 335 344 334 339 330 338 337 329 329 327
340 339 328 298 268 278 252 246 245 242 228 226 245 243 211 194 191 183 175 177 179 179 174 212 268 309 338 15 52 16 358 1 318 294 287 327 330 320 337 327 326 321 326 319 321
334 341 335 322 302 292 236 244 241 223 231 231 231 234 214 203 203 189 179 179 181 191 195 242 282 19 349 65 4 330 317 332 349 242 305 339 329 316 322 354 332 315 313 317 318
324 320 322 318 317 305 239 230 216 225 235 220 231 226 211 206 199 196 185 185 190 192 214 161 123 76 68 10 341 334 334 345 330 344 336 327 333 328 305 339 342 337 320 317 319
323 316 307 304 310 305 254 221 226 234 235 173 191 213 206 206 214 207 190 174 182 203 207 170 142 64 29 26 339 344 341 334 330 333 334 319 328 334 316 340 8 331 318 321 331
326 327 317 304 297 292 259 233 240 256 262 243 249 205 201 196 194 208 194 174 181 179 176 201 186 59 22 349 345 327 331 327 328 329 320 326 333 337 327 328 291 318 301 299 331
325 328 316 314 294 294 242 204 236 263 281 265 279 241 207 193 183 195 204 179 181 171 165 171 88 13 337 323 295 305 319 313 320 321 319 329 328 326 323 319 317 298 318 265 291
304 329 314 321 284 269 213 207 242 271 316 290 262 220 209 209 183 179 203 192 191 189 171 152 154 98 324 286 301 300 300 305 323 318 321 321 314 315 309 315 313 319 320 293 271
300 305 318 299 265 229 218 214 245 274 152 8 291 230 227 184 182 182 162 184 192 197 218 199 178 177 302 300 319 318 303 301 297 301 300 303 302 308 309 311 311 323 325 324 301
295 292 309 275 255 237 234 238 263 239 162 128 49 254 223 174 183 176 165 183 191 188 230 218 191 219 261 266 287 308 291 295 293 298 293 296 297 302 302 305 306 317 312 314 311
301 287 294 269 259 248 255 241 281 232 154 139 117 81 265 209 174 165 179 210 209 211 234 245 226 261 264 268 277 295 304 302 297 286 292 298 287 287 292 295 303 305 311 316 308
304 288 289 251 239 232 208 261 261 221 187 183 184 201 196 289 252 212 195 232 248 265 228 198 211 249 279 272 284 300 307 304 299 298 315 309 302 305 301 306 302 304 314 317 315
295 314 274 255 243 227 215 233 252 250 247 240 208 186 220 169 233 200 218 222 234 258 269 264 226 253 278 292 294 301 303 313 313 323 321 312 308 311 310 308 306 311 314 314 313
281 293 282 258 244 229 238 236 231 248 268 266 219 202 165 160 200 214 234 226 220 229 244 250 254 274 286 293 296 295 305 304 306 310 310 307 309 312 312 307 310 314 310 307 315
260 278 289 259 230 223 224 254 257 290 301 267 284 208 182 191 191 203 226 227 226 243 254 268 267 268 294 295 296 297 297 301 307 310 309 310 308 311 309 308 310 314 314 317 319
262 271 280 269 217 199 211 286 267 289 296 313 247 199 193 209 208 230 243 256 263 260 267 273 278 289 301 294 291 292 294 301 304 300 300 302 305 308 308 309 318 318 319 318 319
264 270 289 269 227 183 204 235 243 259 282 317 319 209 214 209 225 222 247 258 262 281 273 294 264 294 299 299 298 291 295 292 289 291 296 298 304 311 319 321 319 321 318 314 317
258 267 256 242 210 206 228 253 270 279 287 280 325 289 341 199 231 227 277 263 268 268 286 263 275 280 298 302 297 299 299 297 299 299 305 295 303 314 318 319 320 318 313 318 318
250 258 271 253 227 219 250 264 259 293 287 285 280 313 312 298 305 297 275 252 269 257 264 279 267 292 304 301 299 298 298 299 304 309 302 301 307 314 320 319 319 320 320 317 316
261 292 300 261 251 237 220 229 254 263 265 268 265 268 300 306 277 264 282 289 272 278 304 295 297 300 300 298 298 304 304 305 309 304 302 300 308 308 318 316 316 315 320 322 322
276 280 254 261 276 273 257 250 244 261 266 278 246 248 222 288 298 302 300 307 308 306 307 280 290 311 309 311 310 312 307 301 312 316 305 285 306 327 318 315 315 320 322 322 321
266 256 271 283 285 280 267 257 252 259 264 280 231 241 189 237 250 284 299 306 305 306 305 305 306 305 314 311 314 307 320 313 302 308 313 299 306 321 312 312 315 318 318 317 314
Height
5902 5902 5903 5903 5903 5903 5903 5903 5903 5903 5903 5903 5903 5903 5902 5902 5902 5902 5902 5903 5902 5901 5903 5904 5905 5906 5905 5904 5905 5904 5902 5904 5903 5902 5904 5906 5906 5904 5903 5901 5900 5899 5898 5896 5895
5900 5900 5900 5900 5901 5901 5901 5901 5901 5901 5901 5901 5901 5901 5901 5901 5901 5902 5903 5903 5904 5905 5904 5905 5905 5907 5906 5905 5903 5905 5906 5905 5903 5903 5904 5905 5904 5903 5902 5899 5897 5896 5895 5891 5890
5900 5899 5898 5897 5897 5898 5898 5898 5899 5899 5899 5899 5899 5900 5900 5900 5902 5902 5903 5904 5905 5904 5905 5905 5904 5907 5905 5905 5905 5904 5905 5904 5900 5900 5904 5905 5902 5902 5899 5897 5895 5893 5890 5888 5886
5898 5897 5896 5895 5894 5894 5895 5895 5896 5896 5897 5898 5897 5898 5898 5900 5902 5903 5903 5904 5904 5904 5906 5907 5903 5907 5906 5906 5909 5907 5905 5901 5899 5898 5900 5901 5901 5899 5897 5896 5893 5892 5889 5885 5883
5895 5894 5893 5892 5892 5891 5891 5892 5893 5894 5895 5896 5896 5896 5897 5899 5900 5903 5903 5903 5903 5904 5906 5906 5901 5907 5907 5906 5906 5906 5904 5901 5901 5899 5901 5901 5901 5896 5896 5894 5892 5889 5886 5883 5880
5893 5892 5891 5890 5889 5889 5888 5889 5890 5891 5893 5894 5895 5895 5895 5898 5900 5902 5901 5902 5902 5905 5906 5905 5905 5907 5911 5907 5907 5902 5901 5901 5902 5900 5901 5903 5902 5896 5894 5891 5888 5885 5882 5879 5876
5892 5891 5889 5888 5888 5887 5887 5887 5888 5889 5890 5891 5892 5893 5894 5897 5899 5900 5900 5901 5902 5904 5905 5905 5910 5910 5909 5910 5908 5905 5903 5903 5904 5900 5901 5901 5901 5897 5894 5888 5884 5882 5880 5877 5874
5891 5890 5889 5888 5887 5886 5885 5886 5886 5887 5888 5889 5890 5891 5892 5894 5896 5898 5899 5901 5902 5904 5907 5907 5907 5909 5910 5910 5909 5908 5908 5907 5903 5901 5900 5897 5896 5894 5893 5888 5884 5879 5876 5874 5871
5890 5889 5888 5887 5886 5884 5884 5884 5884 5886 5887 5887 5888 5890 5891 5894 5895 5897 5898 5899 5902 5905 5906 5906 5908 5909 5909 5909 5908 5907 5905 5904 5904 5899 5895 5890 5892 5891 5885 5882 5879 5874 5874 5872 5870
5888 5887 5886 5885 5884 5883 5883 5883 5884 5884 5885 5886 5887 5890 5891 5893 5894 5896 5897 5899 5903 5905 5906 5907 5908 5908 5907 5905 5905 5904 5901 5900 5897 5894 5891 5887 5885 5881 5879 5875 5875 5874 5872 5871 5866
5887 5886 5884 5883 5883 5882 5882 5882 5884 5884 5883 5884 5884 5885 5885 5887 5889 5894 5897 5899 5902 5903 5904 5905 5906 5905 5905 5904 5903 5901 5898 5895 5893 5888 5885 5881 5877 5875 5873 5874 5873 5871 5866 5866 5862
5885 5884 5882 5882 5881 5881 5881 5881 5881 5882 5882 5882 5881 5880 5883 5883 5885 5890 5895 5898 5899 5900 5902 5904 5903 5902 5901 5901 5898 5896 5893 5891 5890 5885 5878 5877 5872 5872 5870 5868 5867 5866 5863 5860 5855
5883 5882 5881 5880 5880 5880 5880 5880 5878 5879 5880 5881 5880 5880 5883 5885 5887 5887 5892 5895 5898 5900 5902 5901 5900 5898 5897 5895 5894 5893 5891 5890 5889 5881 5873 5871 5869 5868 5866 5864 5862 5859 5855 5851 5849
5881 5880 5879 5878 5879 5877 5876 5876 5877 5877 5878 5880 5881 5881 5883 5884 5887 5888 5889 5895 5896 5899 5899 5897 5897 5896 5895 5890 5891 5892 5890 5888 5887 5885 5879 5873 5866 5866 5861 5858 5857 5856 5850 5847 5842
5878 5878 5877 5876 5876 5875 5876 5876 5877 5877 5878 5880 5881 5882 5882 5883 5885 5887 5888 5892 5894 5896 5896 5899 5896 5893 5893 5893 5892 5890 5886 5884 5881 5880 5874 5870 5863 5859 5858 5855 5850 5849 5843 5840 5835
5876 5875 5874 5874 5873 5874 5874 5875 5877 5879 5877 5878 5879 5882 5883 5883 5884 5885 5886 5889 5891 5891 5892 5893 5894 5892 5891 5891 5889 5885 5882 5878 5877 5874 5870 5863 5858 5857 5853 5850 5846 5844 5839 5835 5829
5874 5873 5872 5872 5872 5871 5873 5874 5877 5876 5876 5874 5874 5876 5877 5881 5882 5882 5885 5887 5887 5887 5887 5889 5890 5889 5886 5886 5885 5880 5876 5873 5873 5867 5862 5856 5851 5850 5846 5843 5839 5837 5834 5827 5821
5872 5871 5870 5870 5869 5870 5871 5873 5875 5874 5873 5874 5873 5873 5876 5878 5880 5881 5883 5884 5885 5882 5883 5884 5885 5884 5883 5881 5878 5875 5871 5867 5862 5858 5855 5851 5846 5844 5839 5836 5833 5830 5824 5819 5815
5871 5870 5868 5868 5868 5869 5870 5870 5872 5873 5874 5874 5874 5870 5872 5873 5875 5878 5879 5879 5879 5877 5879 5876 5879 5880 5879 5877 5874 5869 5867 5863 5858 5855 5849 5846 5840 5838 5834 5830 5827 5821 5819 5813 5806
5869 5867 5866 5865 5866 5867 5869 5869 5871 5872 5871 5868 5866 5869 5869 5871 5872 5873 5874 5876 5875 5875 5874 5875 5875 5875 5875 5870 5868 5862 5860 5858 5853 5848 5843 5839 5834 5832 5830 5825 5820 5817 5811 5805 5799
5866 5865 5863 5863 5864 5866 5868 5867 5868 5867 5865 5862 5857 5861 5864 5867 5868 5870 5872 5873 5874 5874 5874 5872 5871 5870 5868 5865 5861 5857 5852 5850 5848 5845 5839 5833 5829 5828 5826 5820 5816 5811 5806 5799 5793
5863 5862 5862 5861 5863 5864 5864 5863 5864 5863 5862 5860 5859 5863 5862 5863 5866 5866 5870 5869 5869 5870 5870 5865 5866 5863 5861 5857 5854 5851 5850 5848 5844 5841 5835 5828 5825 5824 5819 5814 5809 5804 5800 5795 5789
5861 5858 5858 5859 5859 5861 5859 5861 5861 5860 5856 5856 5861 5862 5861 5865 5865 5866 5867 5867 5863 5866 5865 5863 5861 5857 5855 5852 5848 5846 5842 5838 5836 5833 5831 5825 5823 5819 5814 5809 5805 5801 5795 5790 5785
5858 5856 5857 5856 5856 5856 5859 5860 5858 5858 5856 5853 5858 5859 5858 5859 5856 5862 5861 5861 5860 5858 5857 5855 5853 5851 5849 5846 5842 5840 5837 5832 5829 5824 5823 5820 5816 5813 5808 5803 5798 5792 5788 5785 5778
5854 5855 5856 5853 5850 5851 5852 5854 5855 5855 5855 5854 5854 5854 5854 5856 5856 5857 5855 5856 5856 5855 5854 5851 5848 5847 5843 5842 5837 5834 5831 5827 5823 5820 5815 5814 5811 5808 5803 5799 5794 5787 5781 5774 5767
5852 5852 5850 5848 5848 5849 5848 5849 5850 5850 5852 5851 5850 5853 5850 5855 5851 5851 5850 5849 5849 5849 5847 5844 5842 5842 5839 5837 5833 5830 5827 5825 5820 5816 5810 5808 5804 5799 5795 5790 5784 5776 5770 5765 5759
5849 5848 5846 5846 5845 5844 5844 5846 5846 5846 5843 5845 5842 5845 5845 5850 5850 5848 5846 5845 5843 5843 5841 5838 5838 5838 5835 5832 5829 5826 5824 5820 5816 5810 5805 5802 5798 5793 5788 5783 5775 5770 5765 5759 5754